User: anonymous   Login
Location: Unspecified
(0.0000°N, 0.0000°E)
Time: 10:18:39
(UTC+00:00)
Language:

Quakesat - Orbit

View from above orbital plane
View from above orbital plane
View from above satellite
View from above satellite

Ground track
Ground track

The orbit data is extracted from the following two-line orbital elements,

1 27845U 03031F   21168.96449737  .00000082  00000-0  56541-4 0  9995
2 27845  98.6745 178.3296 0010320  98.5332 261.7015 14.22368945931941
Epoch (UTC): 17 June 2021 23:08:52
Eccentricity: 0.0010320
inclination: 98.6745°
perigee height: 810 km
apogee height: 825 km
right ascension of ascending node: 178.3296°
argument of perigee: 98.5332°
revolutions per day: 14.22368945
mean anomaly at epoch: 261.7015°
orbit number at epoch: 93194

The dashed part of the orbit path shows where the satellite is in the earth's shadow,  

DLR